Location: Fayetteville
(35.0530°N, 78.8790°W)
Time: 17:01:49
(UTC-05:00)

Hubble Space Telescope - Pass Details

Date: 29 November 2021
Orbit: 534 x 538 km, 28.5° (Epoch: 28 January)

Event Time Altitude Azimuth Distance (km) Brightness Sun altitude
Exits shadow 04:10:49 13° 116° (ESE) 1,608 3.8 -34.8°
Drops below altitude 10° 04:11:20 10° 112° (ESE) 1,774 4.1 -34.7°
Sets 04:13:48 0° 100° (E) 2,666 5.4 -34.2°
